DO7GH-13 Weather Reports


time (UTC)temp
F
wind
direction
speed
knots
gust
knots
rain 1hr
in
rain 24hr
in
rain mn
in
humidity
%
barometer
mb
20260906075008 64 81 0.0 3.5 0.00 0.04 0.00 64 1028.3
20260906074519 63 150 0.0 2.6 0.00 0.04 0.00 62 1028.3
20260906074010 63 49 0.0 1.7 0.00 0.04 0.00 66 1028.2
20260906073508 63 145 0.0 1.7 0.00 0.04 0.00 65 1028.2
20260906073004 62 130 0.0 1.7 0.00 0.04 0.00 66 1028.2
20260906072504 62 163 0.0 1.7 0.00 0.04 0.00 67 1028.1
20260906072004 62 43 0.0 1.7 0.00 0.04 0.00 68 1028.1
20260906071505 62 149 0.0 1.7 0.00 0.04 0.00 70 1028.1
20260906071004 62 61 0.0 1.7 0.00 0.04 0.00 70 1028.1
20260906070505 61 59 0.0 1.7 0.00 0.04 0.00 67 1028.2
20260906070013 61 36 0.0 1.7 0.00 0.04 0.00 66 1028.0
20260906065506 61 81 0.0 3.5 0.00 0.04 0.00 68 1027.9
20260906065011 61 65 0.0 3.5 0.00 0.04 0.00 68 1028.0
20260906064518 61 58 0.0 1.7 0.00 0.04 0.00 70 1028.0
20260906064010 60 49 0.0 2.6 0.00 0.04 0.00 69 1028.0
20260906063512 60 55 0.0 2.6 0.00 0.04 0.00 74 1028.0
20260906063003 60 14 0.9 2.6 0.00 0.04 0.00 71 1028.1
20260906062504 59 42 0.0 2.6 0.00 0.04 0.00 70 1028.1
20260906062005 59 350 0.0 0.0 0.00 0.04 0.00 74 1028.2
20260906061506 59 5 0.0 0.0 0.00 0.04 0.00 76 1028.3
20260906061004 59 9 0.0 0.0 0.00 0.04 0.00 78 1028.2
20260906060505 58 9 0.0 0.0 0.00 0.04 0.00 78 1028.1
20260906060009 58 352 0.0 0.0 0.00 0.04 0.00 80 1028.0
20260906055506 57 351 0.0 0.0 0.00 0.04 0.00 80 1027.9
20260906055007 57 352 0.0 0.0 0.00 0.04 0.00 81 1027.9
20260906054516 56 342 0.0 0.0 0.00 0.04 0.00 83 1027.8
20260906054009 56 342 0.0 0.0 0.00 0.05 0.00 83 1028.0
20260906053504 56 336 0.0 0.0 0.00 0.06 0.00 85 1027.8
20260906053009 56 340 0.0 0.0 0.00 0.06 0.00 85 1027.8
20260906052504 56 321 0.0 0.0 0.00 0.06 0.00 85 1027.8
20260906052006 56 320 0.0 0.0 0.00 0.06 0.00 86 1027.8
20260906051514 56 331 0.0 0.0 0.00 0.06 0.00 86 1027.8
20260906051008 56 338 0.0 0.0 0.00 0.06 0.00 86 1027.8
20260906050508 55 324 0.0 0.0 0.00 0.07 0.00 86 1027.8
20260906050023 55 328 0.0 0.0 0.00 0.14 0.00 86 1027.8
20260906045504 55 329 0.0 0.0 0.00 0.15 0.00 86 1027.7
20260906045004 56 324 0.0 0.0 0.00 0.18 0.00 86 1027.7
20260906044515 56 325 0.0 0.0 0.00 0.18 0.00 86 1027.8
20260906044007 56 320 0.0 0.0 0.00 0.18 0.00 86 1027.8
20260906043504 56 315 0.0 0.0 0.00 0.18 0.00 86 1027.8
20260906043013 56 313 0.0 0.0 0.00 0.18 0.00 86 1027.7
20260906042506 56 313 0.0 0.0 0.00 0.18 0.00 87 1027.8
20260906042008 56 313 0.0 0.0 0.00 0.18 0.00 87 1027.8
20260906041519 56 313 0.0 0.0 0.00 0.18 0.00 87 1027.6
20260906041009 56 328 0.0 0.0 0.00 0.18 0.00 87 1027.5
20260906040512 56 329 0.0 0.0 0.00 0.18 0.00 86 1027.4
20260906040026 56 329 0.0 0.0 0.00 0.18 0.00 86 1027.4
20260906035512 57 330 0.0 0.0 0.00 0.18 0.00 86 1027.5
20260906035007 57 320 0.0 0.0 0.00 0.18 0.00 86 1027.5
20260906034513 57 316 0.0 0.0 0.00 0.18 0.00 86 1027.4
20260906034010 57 335 0.0 0.0 0.00 0.18 0.00 86 1027.4
20260906033504 57 325 0.0 0.0 0.00 0.18 0.00 86 1027.5
20260906033019 57 329 0.0 0.0 0.00 0.18 0.00 87 1027.4
20260906032508 57 327 0.0 0.0 0.00 0.18 0.00 87 1027.3
20260906032008 57 342 0.0 0.0 0.00 0.18 0.00 87 1027.3
20260906031520 57 331 0.0 0.0 0.00 0.18 0.00 87 1027.3
20260906031010 57 337 0.0 0.0 0.00 0.18 0.00 87 1027.2
20260906030514 57 330 0.0 0.0 0.00 0.18 0.00 87 1027.2
20260906030029 57 316 0.0 1.7 0.00 0.18 0.00 87 1027.1
20260906025513 57 320 0.0 1.7 0.00 0.18 0.00 87 1027.2
20260906025015 57 349 0.0 1.7 0.00 0.18 0.00 87 1027.2
20260906024530 57 321 0.0 1.7 0.00 0.18 0.00 88 1027.2
20260906024014 57 318 0.0 1.7 0.00 0.18 0.00 88 1027.2
20260906023505 57 324 0.0 1.7 0.00 0.18 0.00 89 1027.3
20260906023013 57 326 0.0 1.7 0.00 0.18 0.00 88 1027.2
20260906022507 57 324 0.0 1.7 0.00 0.18 0.00 88 1027.1
20260906022008 57 320 0.0 1.7 0.00 0.18 0.00 88 1027.1
20260906021521 57 350 0.0 2.6 0.00 0.18 0.00 88 1027.2
20260906021010 57 337 0.0 2.6 0.00 0.18 0.00 88 1027.2
20260906020516 57 329 0.0 1.7 0.00 0.18 0.00 88 1027.1
20260906020029 57 347 0.0 3.5 0.00 0.18 0.00 87 1027.1
20260906015513 57 352 0.0 3.5 0.00 0.18 0.00 87 1027.1
20260906015013 58 336 0.9 2.6 0.00 0.18 0.00 86 1027.1
20260906014533 58 319 0.9 2.6 0.00 0.18 0.00 86 1027.1
20260906014013 58 331 0.9 1.7 0.00 0.18 0.00 86 1027.1
20260906013507 58 325 0.0 1.7 0.00 0.18 0.00 86 1027.1
20260906013019 58 315 0.0 0.0 0.00 0.18 0.00 86 1027.1
20260906012506 58 313 0.0 0.0 0.00 0.18 0.00 86 1027.1
20260906012007 58 350 0.0 0.0 0.00 0.18 0.00 86 1027.1
20260906011517 58 340 0.0 0.0 0.00 0.18 0.00 87 1027.1
20260906011010 58 340 0.0 0.0 0.00 0.18 0.00 86 1027.2
20260906010513 58 323 0.0 0.0 0.00 0.18 0.00 87 1027.2
20260906010026 58 323 0.0 0.0 0.00 0.18 0.00 87 1027.2
20260906005502 58 327 0.0 0.0 0.00 0.18 0.00 86 1027.1
20260906005004 58 330 0.0 0.0 0.00 0.18 0.00 87 1027.1
20260906004503 58 338 0.0 0.0 0.00 0.18 0.00 87 1027.2
20260906004004 58 338 0.0 0.0 0.00 0.18 0.00 87 1027.1
20260906003505 58 333 0.0 0.0 0.00 0.18 0.00 88 1027.1
20260906003009 58 336 0.0 0.0 0.00 0.18 0.00 87 1027.1
20260906002505 58 32 0.0 0.0 0.00 0.18 0.00 86 1027.0
20260906002003 59 316 0.0 1.7 0.00 0.18 0.00 86 1027.0
20260906001505 59 262 0.0 0.9 0.00 0.18 0.00 86 1027.0
20260906001004 59 267 0.0 0.0 0.00 0.18 0.00 86 1026.9
20260906000504 59 251 0.0 0.0 0.00 0.18 0.00 87 1027.0
20260906000006 59 251 0.0 0.0 0.00 0.18 0.00 87 1027.0
20260905235502 59 253 0.0 0.0 0.00 0.18 0.00 87 1027.0
20260905235002 58 242 0.0 0.0 0.00 0.18 0.00 87 1027.0
20260905234506 58 249 0.0 0.0 0.00 0.18 0.00 87 1027.0
20260905234003 59 263 0.0 0.0 0.00 0.18 0.00 87 1027.0
20260905233505 59 257 0.0 0.0 0.00 0.18 0.00 87 1027.0
20260905233020 58 254 0.0 0.0 0.00 0.18 0.00 87 1027.1
20260905232502 58 238 0.0 0.0 0.00 0.18 0.00 87 1027.1
20260905232002 58 235 0.0 0.0 0.00 0.18 0.00 87 1027.1
20260905231505 58 211 0.0 0.0 0.00 0.18 0.00 86 1027.0
20260905231004 58 197 0.0 0.0 0.00 0.18 0.00 86 1027.1
20260905230504 59 238 0.0 0.0 0.00 0.18 0.00 86 1027.1
20260905230008 59 240 0.0 0.0 0.00 0.18 0.00 85 1027.0
20260905225504 59 240 0.0 0.9 0.00 0.18 0.00 85 1027.0
20260905225006 59 258 0.0 0.9 0.00 0.18 0.00 85 1026.9
20260905224516 59 295 0.0 1.7 0.00 0.18 0.00 85 1026.9
20260905224002 59 268 0.0 1.7 0.00 0.18 0.00 85 1026.9
20260905223502 60 259 0.0 1.7 0.00 0.18 0.00 85 1026.9
20260905223004 60 238 0.0 0.0 0.00 0.18 0.00 84 1026.8
20260905222503 60 260 0.0 0.0 0.00 0.18 0.00 85 1026.8
20260905222009 60 240 0.0 0.0 0.00 0.18 0.00 85 1026.8
20260905221507 60 283 0.0 0.0 0.00 0.18 0.00 84 1026.9
20260905221003 60 254 0.0 0.0 0.00 0.18 0.00 85 1026.9
20260905220504 60 269 0.0 0.0 0.00 0.18 0.00 85 1026.8
20260905220012 60 292 0.0 1.7 0.00 0.18 0.00 84 1026.8
20260905215508 60 292 0.0 1.7 0.00 0.18 0.18 84 1026.8
20260905215008 60 272 0.0 0.9 0.00 0.18 0.18 83 1026.7
20260905214519 61 258 0.0 1.7 0.00 0.18 0.18 83 1026.7
20260905214012 60 257 0.0 1.7 0.00 0.18 0.18 84 1026.7
20260905213509 60 277 0.0 1.7 0.00 0.18 0.18 84 1026.6
20260905213004 60 259 0.0 0.0 0.00 0.18 0.18 84 1026.5
20260905212503 60 292 0.0 1.7 0.00 0.18 0.18 84 1026.5
20260905212004 61 282 0.0 1.7 0.00 0.18 0.18 84 1026.5
20260905211508 61 254 0.0 1.7 0.00 0.18 0.18 84 1026.5
20260905211004 61 297 0.0 1.7 0.00 0.18 0.18 84 1026.4
20260905210505 61 275 0.0 1.7 0.00 0.18 0.18 84 1026.4
20260905210014 61 255 0.0 0.0 0.00 0.18 0.18 84 1026.4
20260905205507 61 251 0.0 0.9 0.00 0.18 0.18 85 1026.3
20260905205009 61 251 0.0 0.9 0.00 0.18 0.18 84 1026.4
20260905204517 61 13 0.0 0.0 0.00 0.18 0.18 84 1026.3
20260905204010 61 13 0.0 0.9 0.00 0.18 0.18 84 1026.3
20260905203510 62 13 0.0 1.7 0.00 0.18 0.18 83 1026.3
20260905203027 62 9 0.0 1.7 0.00 0.18 0.18 82 1026.2
20260905202502 63 346 0.0 1.7 0.00 0.18 0.18 82 1026.2
20260905202009 63 304 0.0 4.3 0.00 0.18 0.18 81 1026.2
20260905201505 63 268 0.0 4.3 0.00 0.18 0.18 81 1026.1
20260905201004 63 300 0.0 3.5 0.00 0.18 0.18 81 1026.0
20260905200507 63 243 0.0 3.5 0.00 0.18 0.18 81 1025.9
20260905200009 64 234 0.0 1.7 0.00 0.18 0.18 80 1025.9
20260905195506 64 295 0.0 1.7 0.00 0.18 0.18 80 1025.9
20260905195006 64 258 0.0 7.0 0.00 0.18 0.18 79 1025.9
20260905194516 64 292 0.9 7.0 0.00 0.18 0.18 79 1025.8
20260905194009 64 277 0.9 7.0 0.00 0.18 0.18 80 1025.7
20260905193508 64 296 1.7 6.1 0.00 0.18 0.18 81 1025.6
20260905193008 64 265 0.9 4.3 0.00 0.18 0.18 81 1025.5
20260905192508 64 247 0.9 4.3 0.00 0.18 0.18 81 1025.4
20260905192005 64 259 1.7 3.5 0.00 0.18 0.18 81 1025.5
20260905191510 64 245 0.9 3.5 0.00 0.18 0.18 82 1025.4
20260905191007 64 311 0.9 3.5 0.00 0.18 0.18 82 1025.3
20260905190507 64 344 0.9 2.6 0.00 0.18 0.18 82 1025.2
20260905190013 65 294 0.0 3.5 0.00 0.18 0.18 82 1025.1
20260905185507 65 287 0.9 4.3 0.00 0.18 0.18 81 1025.1
20260905185004 65 244 0.9 7.0 0.00 0.18 0.18 81 1025.1
20260905184521 65 287 1.7 7.0 0.00 0.18 0.18 81 1025.0
20260905184006 65 257 1.7 4.3 0.00 0.18 0.18 82 1024.9
20260905183506 65 311 0.9 4.3 0.00 0.18 0.18 82 1024.9
20260905183006 65 249 0.0 4.3 0.00 0.18 0.18 83 1024.8
20260905182504 65 232 0.0 1.7 0.00 0.18 0.18 83 1024.8
20260905182006 65 248 0.0 1.7 0.00 0.18 0.18 83 1024.6
20260905181515 65 260 0.0 1.7 0.00 0.18 0.18 83 1024.6
20260905181009 65 287 0.0 1.7 0.00 0.18 0.18 83 1024.5
20260905180509 65 252 0.9 1.7 0.00 0.18 0.18 83 1024.5
20260905180024 65 254 0.0 1.7 0.00 0.18 0.18 83 1024.4
20260905175505 65 252 0.0 1.7 0.00 0.18 0.18 83 1024.4
20260905175005 65 316 0.0 1.7 0.00 0.18 0.18 83 1024.4
20260905174526 65 256 0.0 1.7 0.00 0.18 0.18 83 1024.4
20260905174006 65 267 0.0 1.7 0.00 0.18 0.18 82 1024.3
20260905173507 65 259 0.0 1.7 0.00 0.18 0.18 82 1024.3
20260905173005 66 188 0.0 1.7 0.00 0.18 0.18 81 1024.3
20260905172505 66 276 0.0 2.6 0.00 0.18 0.18 81 1024.1
20260905172007 66 261 0.0 1.7 0.00 0.18 0.18 80 1024.2
20260905171514 67 266 0.0 2.6 0.00 0.18 0.18 80 1024.2
20260905171011 67 196 0.0 2.6 0.00 0.18 0.18 79 1024.1
20260905170507 67 263 0.0 3.5 0.00 0.18 0.18 79 1024.2
20260905170024 67 309 0.9 4.3 0.00 0.18 0.18 78 1024.2
20260905165512 68 225 0.9 4.3 0.00 0.18 0.18 77 1024.2
20260905165014 68 264 0.9 4.3 0.00 0.18 0.18 76 1024.2
20260905164531 68 209 0.9 3.5 0.00 0.18 0.18 76 1024.1
20260905164004 68 185 0.0 5.2 0.00 0.18 0.18 75 1024.1
20260905163504 69 194 0.9 5.2 0.00 0.18 0.18 74 1024.1
20260905163008 69 236 0.9 3.5 0.00 0.18 0.18 73 1024.1
20260905162507 69 241 0.9 3.5 0.00 0.18 0.18 73 1024.1
20260905162007 69 246 0.9 4.3 0.00 0.18 0.18 74 1024.1
20260905161516 69 260 0.9 4.3 0.00 0.18 0.18 73 1024.1
20260905161009 69 275 0.9 4.3 0.00 0.18 0.18 74 1024.1
20260905160510 69 207 0.0 5.2 0.00 0.18 0.18 74 1024.1
20260905160042 69 222 0.9 6.1 0.00 0.18 0.18 73 1024.0
20260905155511 69 256 0.9 6.1 0.00 0.18 0.18 73 1024.0
20260905155013 69 236 0.0 3.5 0.00 0.18 0.18 74 1023.9
20260905154527 69 260 0.9 3.5 0.00 0.18 0.18 73 1023.9
20260905154017 70 292 0.9 4.3 0.00 0.18 0.18 72 1023.9
20260905153506 70 288 1.7 4.3 0.00 0.18 0.18 71 1024.0
20260905153012 69 230 1.7 6.1 0.00 0.18 0.18 73 1024.0
20260905152504 69 312 0.9 6.1 0.00 0.18 0.18 73 1024.1
20260905152010 70 333 0.9 5.2 0.00 0.18 0.18 72 1024.1
20260905151518 70 360 0.9 7.0 0.00 0.18 0.18 69 1024.0
20260905151012 70 235 1.7 7.0 0.00 0.18 0.18 68 1024.1
20260905150510 70 269 1.7 12.2 0.00 0.18 0.18 68 1024.0
20260905150028 69 294 0.9 12.2 0.00 0.18 0.18 69 1024.0
20260905145512 69 226 1.7 4.3 0.00 0.18 0.18 69 1024.1
20260905145014 69 228 1.7 5.2 0.00 0.18 0.18 69 1024.0
20260905144543 69 198 0.9 5.2 0.00 0.18 0.18 68 1024.1
20260905144016 69 286 0.9 8.7 0.00 0.18 0.18 68 1024.1
20260905143506 69 191 0.9 8.7 0.00 0.18 0.18 69 1024.2
20260905143022 69 344 1.7 7.0 0.00 0.18 0.18 70 1024.1
20260905142509 68 237 1.7 7.8 0.00 0.18 0.18 71 1024.1
20260905142007 68 185 2.6 7.8 0.00 0.18 0.18 69 1024.3
20260905141520 69 258 1.7 7.8 0.00 0.18 0.18 71 1024.2
20260905141014 69 317 0.9 4.3 0.00 0.18 0.18 73 1024.3
20260905140509 68 294 0.9 8.7 0.00 0.18 0.18 74 1024.3
20260905140020 68 21 2.6 8.7 0.00 0.18 0.18 73 1024.3
20260905135512 68 294 0.9 8.7 0.00 0.18 0.18 76 1024.4
20260905135012 67 316 1.7 8.7 0.00 0.18 0.18 74 1024.4
20260905134526 68 228 1.7 6.1 0.00 0.18 0.18 74 1024.4
20260905134007 68 316 0.9 5.2 0.00 0.18 0.18 74 1024.6
20260905133506 68 231 1.7 6.1 0.00 0.18 0.18 74 1024.5
20260905133016 67 261 0.9 6.1 0.00 0.18 0.18 75 1024.6
20260905132513 66 268 0.9 6.1 0.00 0.18 0.18 80 1024.6
20260905132012 66 261 1.7 6.1 0.00 0.18 0.18 78 1024.6
20260905131542 66 348 1.7 6.1 0.00 0.18 0.18 79 1024.5
20260905131006 65 251 1.7 4.3 0.00 0.18 0.18 82 1024.6
20260905130508 64 229 0.9 3.5 0.00 0.18 0.18 83 1024.5
20260905130017 64 292 0.0 4.3 0.00 0.18 0.18 83 1024.6
20260905125508 63 343 0.9 7.8 0.00 0.18 0.18 83 1024.6
20260905125011 63 252 2.6 7.8 0.00 0.18 0.18 83 1024.8
20260905124526 63 275 0.9 4.3 0.00 0.18 0.18 85 1024.8
20260905124008 63 233 1.7 7.0 0.00 0.18 0.18 84 1024.6
20260905123508 63 159 0.9 7.0 0.00 0.18 0.18 85 1024.6
20260905123020 63 238 1.7 5.2 0.00 0.18 0.18 86 1024.6
20260905122513 63 249 0.9 4.3 0.00 0.18 0.18 87 1024.5
20260905122013 62 268 0.9 4.3 0.00 0.18 0.18 87 1024.4
20260905121530 62 227 0.9 3.5 0.00 0.18 0.18 86 1024.3
20260905121018 62 209 0.9 3.5 0.00 0.18 0.18 85 1024.2
20260905120517 62 234 0.0 3.5 0.00 0.18 0.18 86 1024.4
20260905120030 62 265 0.9 3.5 0.00 0.18 0.18 86 1024.4
20260905115511 62 284 0.9 3.5 0.00 0.18 0.18 86 1024.5
20260905115012 62 196 0.9 4.3 0.00 0.18 0.18 86 1024.5
20260905114522 62 213 0.9 4.3 0.00 0.18 0.18 86 1024.4
20260905114008 62 244 0.0 5.2 0.00 0.18 0.18 87 1024.3
20260905113509 61 225 0.9 5.2 0.00 0.18 0.18 86 1024.3
20260905113024 61 282 1.7 5.2 0.00 0.18 0.18 85 1024.4
20260905112514 62 236 2.6 5.2 0.00 0.18 0.18 86 1024.4
20260905112015 61 234 1.7 4.3 0.00 0.18 0.18 87 1024.3
20260905111529 61 184 0.9 2.6 0.00 0.18 0.18 1024.2
20260905111015 60 212 0.0 2.6 0.00 0.18 0.18 1024.3
20260905110517 60 178 0.9 2.6 0.00 0.18 0.18 88 1024.5
20260905110034 60 227 0.9 2.6 0.00 0.18 0.18 88 1024.5
20260905105518 60 209 1.7 2.6 0.00 0.18 0.18 88 1024.4
20260905105016 60 301 0.0 3.5 0.00 0.18 0.18 89 1024.2
20260905104514 59 136 1.7 3.5 0.00 0.18 0.18 88 1024.3
20260905104010 60 261 0.0 3.5 0.00 0.17 0.17 88 1024.5
20260905103512 60 235 0.9 3.5 0.00 0.17 0.17 87 1024.4
20260905103032 60 184 0.9 2.6 0.02 0.17 0.17 87 1024.4
20260905102514 60 217 0.0 1.7 0.03 0.17 0.17 86 1024.3
20260905102013 60 227 0.0 1.7 0.03 0.17 0.17 88 1024.3
20260905101530 59 252 0.9 1.7 0.03 0.17 0.17 87 1024.3
20260905101016 58 230 0.0 1.7 0.03 0.17 0.17 88 1024.3
20260905100505 58 248 0.0 2.6 0.03 0.17 0.17 89 1024.4
20260905100009 58 195 0.9 2.6 0.03 0.17 0.17 89 1024.3
20260905095506 58 194 0.0 2.6 0.03 0.17 0.17 90 1024.3
20260905095006 58 261 0.9 2.6 0.03 0.17 0.17 89 1024.4
20260905094513 58 211 0.0 3.5 0.03 0.17 0.17 90 1024.4
20260905094008 58 206 0.0 3.5 0.03 0.17 0.17 88 1024.4
20260905093507 58 219 0.9 3.5 0.03 0.16 0.16 88 1024.5
20260905093003 58 215 0.9 4.3 0.01 0.14 0.14 88 1024.3
20260905092505 59 225 1.7 4.3 0.00 0.14 0.14 87 1024.2
20260905092003 59 132 0.9 4.3 0.00 0.13 0.13 86 1024.0
20260905091505 60 127 1.7 3.5 0.00 0.13 0.13 86 1024.1
20260905091002 60 190 0.9 1.7 0.00 0.13 0.13 86 1024.0
20260905090506 60 152 0.0 1.7 0.00 0.13 0.13 86 1024.0
20260905090007 59 154 0.0 0.0 0.00 0.13 0.13 87 1024.1
20260905085504 59 227 0.0 0.0 0.00 0.13 0.13 87 1024.1
20260905085007 59 202 0.0 0.0 0.00 0.13 0.13 87 1024.0
20260905084515 59 159 0.0 0.0 0.00 0.13 0.13 87 1023.8
20260905084008 59 156 0.0 0.0 0.00 0.13 0.13 86 1023.9
20260905083507 59 122 0.0 0.0 0.00 0.13 0.13 87 1023.8
20260905083003 59 148 0.0 0.0 0.00 0.13 0.13 85 1023.9
20260905082503 59 137 0.0 0.0 0.00 0.13 0.13 86 1023.8
20260905082005 59 130 0.0 2.6 0.00 0.13 0.13 87 1023.8
20260905081509 59 134 0.0 2.6 0.00 0.13 0.13 87 1023.7
20260905081003 60 48 0.0 1.7 0.00 0.13 0.13 87 1023.8
20260905080504 59 153 0.0 1.7 0.00 0.13 0.13 88 1023.7
20260905080006 59 207 0.0 2.6 0.00 0.13 0.13 1023.8
20260905075503 58 208 0.9 2.6 0.00 0.13 0.13 88 1023.7